Location: Владивосток
(43.1151°N, 131.8856°E)
Time: 07:19:24
(UTC+10:00)

O/OREOS (USA 219) - Visible Passes

Search period start: 27 June 2022 00:00
Search period end: 07 July 2022 00:00
Orbit: 621 x 646 km, 72.0° (Epoch: 22 May)

Date Brightness Start Highest point End Pass type
(mag) Time Alt. Az. Time Alt. Az. Time Alt. Az.
27 Jun ? 01:13:57 10° NNE 01:16:28 14° NE 01:18:58 10° E visible
27 Jun ? 02:51:49 10° NNW 02:56:27 76° WSW 02:58:06 39° S visible
28 Jun ? 01:34:59 10° N 01:38:55 27° ENE 01:41:38 16° ESE visible
28 Jun ? 03:14:13 10° NW 03:18:22 34° WSW 03:19:01 32° WSW visible
29 Jun ? 01:56:39 10° NNW 02:01:11 55° ENE 02:02:38 38° ESE visible
29 Jun ? 03:37:21 10° WNW 03:40:03 16° W 03:40:03 16° W visible
30 Jun ? 00:40:33 10° NNE 00:43:21 16° NE 00:46:08 10° E visible
30 Jun ? 02:18:40 10° NNW 02:23:15 68° WSW 02:23:44 62° SSW visible
01 Jul ? 01:01:43 10° N 01:05:47 29° ENE 01:07:29 23° E visible
01 Jul ? 02:41:07 10° NW 02:44:54 30° W 02:44:54 30° W visible
02 Jul ? 01:23:25 10° NNW 01:28:00 61° ENE 01:28:42 54° ESE visible
02 Jul ? 03:04:28 10° WNW 03:06:07 14° W 03:06:07 14° W visible
03 Jul ? 00:07:10 10° N 00:10:13 17° NE 00:12:33 12° E visible
03 Jul ? 01:45:30 10° NNW 01:49:59 61° WSW 01:49:59 61° WSW visible
04 Jul ? 00:28:27 10° N 00:32:37 32° ENE 00:33:52 28° E visible
04 Jul ? 02:08:01 10° NW 02:11:18 26° W 02:11:18 26° W visible
05 Jul ? 00:50:13 10° NNW 00:54:50 68° ENE 00:55:14 64° E visible
05 Jul ? 02:31:40 10° WNW 02:32:40 12° W 02:32:40 12° W visible
05 Jul ? 23:33:50 10° N 23:37:06 19° NE 23:39:12 14° E visible
06 Jul ? 01:12:20 10° NNW 01:16:38 54° W 01:16:38 54° W visible
